,,,PA_Meas_PMT16A,,PR_Meas_QMR101_102,,RH_Meas_QMH101,,SR_Meas_QMS101,,TA_Meas_QMH101,,GenWind,,GenWind,
date,time,status,PA,status,PR,status,RH,status,SR,status,TA,status,DirAvg,status,SpdAvg,
2012-01-08, 00:00:04,VALID,1004.65,VALID,0,VALID,91.2033,VALID,0,VALID,24.7529,VALID,360,VALID,0.254687,
2012-01-08, 00:01:04,VALID,1004.65,VALID,0,VALID,91.1499,VALID,0,VALID,24.7529,VALID,360,VALID,0.241797,
2012-01-08, 00:02:04,VALID,1004.67,VALID,0,VALID,91.0278,VALID,0,VALID,24.714,VALID,360,VALID,0.136719,
2012-01-08, 00:03:04,VALID,1004.64,VALID,0,VALID,90.8752,VALID,0,VALID,24.7335,VALID,360,VALID,0.162109,
2012-01-08, 00:04:04,VALID,1004.62,VALID,0,VALID,90.7837,VALID,0,VALID,24.7335,VALID,360,VALID,0.176563,
2012-01-08, 00:05:04,VALID,1004.63,VALID,0,VALID,90.7226,VALID,0,VALID,24.7335,VALID,360,VALID,0.176172,
2012-01-08, 00:06:04,VALID,1004.61,VALID,0,VALID,90.6845,VALID,0,VALID,24.7335,VALID,360,VALID,0.223828,
2012-01-08, 00:07:04,VALID,1004.57,VALID,0,VALID,90.654,VALID,0,VALID,24.7743,VALID,360,VALID,0.326172,
2012-01-08, 00:08:04,VALID,1004.56,VALID,0,VALID,90.5777,VALID,0,VALID,24.7529,VALID,360,VALID,0.144531,
2012-01-08, 00:09:04,VALID,1004.55,VALID,0,VALID,90.5319,VALID,0,VALID,24.7743,VALID,360,VALID,0.217578,
2012-01-08, 00:10:04,VALID,1004.52,VALID,0,VALID,90.3488,VALID,0,VALID,24.7724,VALID,360,VALID,0.333984,
2012-01-08, 00:11:04,VALID,1004.46,VALID,0,VALID,90.3641,VALID,0,VALID,24.7724,VALID,360,VALID,0.267969,
2012-01-08, 00:12:04,VALID,1004.48,VALID,0,VALID,90.4404,VALID,0,VALID,24.7937,VALID,360,VALID,0.507813,
2012-01-08, 00:13:04,VALID,1004.42,VALID,0,VALID,90.5624,VALID,0,VALID,24.7724,VALID,360,VALID,0.262109,
2012-01-08, 00:14:04,VALID,1004.42,VALID,0,VALID,90.5319,VALID,0,VALID,24.7335,VALID,360,VALID,0.479297,
2012-01-08, 00:15:04,VALID,1004.37,VALID,0,VALID,90.6158,VALID,0,VALID,24.7335,VALID,360,VALID,0.439063,
2012-01-08, 00:16:04,VALID,1004.33,VALID,0,VALID,90.7379,VALID,0,VALID,24.6945,VALID,360,VALID,0.521875,
2012-01-08, 00:17:04,VALID,1004.28,VALID,0,VALID,91.0278,VALID,0,VALID,24.6964,VALID,360,VALID,0.572656,
2012-01-08, 00:18:04,VALID,1004.21,VALID,0,VALID,91.2414,VALID,0,VALID,24.6556,VALID,360,VALID,0.763281,
2012-01-08, 00:19:04,VALID,1004.2,VALID,0,VALID,91.3253,VALID,0,VALID,24.6556,VALID,360,VALID,0.665234,
2012-01-08, 00:20:04,VALID,1004.15,VALID,0,VALID,91.4932,VALID,0,VALID,24.6166,VALID,360,VALID,0.601172,
2012-01-08, 00:21:04,VALID,1004.15,VALID,0,VALID,91.5847,VALID,0.0815089,VALID,24.5972,VALID,360,VALID,0.564062,
2012-01-08, 00:22:04,VALID,1004.12,VALID,0,VALID,91.6763,VALID,0,VALID,24.5972,VALID,360,VALID,0.711719,
2012-01-08, 00:23:04,VALID,1004.1,VALID,0,VALID,91.7602,VALID,0,VALID,24.5582,VALID,360,VALID,0.782812,
2012-01-08, 00:24:04,VALID,1004.1,VALID,0,VALID,91.8822,VALID,0,VALID,24.5582,VALID,360,VALID,0.713672,
2012-01-08, 00:25:04,VALID,1004.12,VALID,0,VALID,91.9509,VALID,0,VALID,24.5388,VALID,360,VALID,0.5625,
2012-01-08, 00:26:04,VALID,1004.13,VALID,0,VALID,91.9051,VALID,0,VALID,24.5388,VALID,360,VALID,0.511719,
2012-01-08, 00:27:04,VALID,1004.15,VALID,0,VALID,91.9356,VALID,0,VALID,24.5388,VALID,360,VALID,0.389844,
2012-01-08, 00:28:04,VALID,1004.15,VALID,0,VALID,91.928,VALID,0,VALID,24.5193,VALID,360,VALID,0.294531,
2012-01-08, 00:29:04,VALID,1004.16,VALID,0,VALID,91.928,VALID,0,VALID,24.5193,VALID,360,VALID,0.284375,
2012-01-08, 00:30:04,VALID,1004.18,VALID,0,VALID,91.9738,VALID,0,VALID,24.5388,VALID,360,VALID,0.455078,
2012-01-08, 00:31:04,VALID,1004.17,VALID,0,VALID,91.8441,VALID,0,VALID,24.5388,VALID,360,VALID,0.576563,
2012-01-08, 00:32:04,VALID,1004.12,VALID,0,VALID,91.7754,VALID,0,VALID,24.5388,VALID,360,VALID,0.387891,
2012-01-08, 00:33:04,VALID,1004.14,VALID,0,VALID,91.722,VALID,0.0815089,VALID,24.5796,VALID,360,VALID,0.326562,
2012-01-08, 00:34:04,VALID,1004.13,VALID,0,VALID,91.7449,VALID,0.0815089,VALID,24.5582,VALID,360,VALID,0.155859,
2012-01-08, 00:35:04,VALID,1004.18,VALID,0,VALID,91.8059,VALID,0,VALID,24.5582,VALID,360,VALID,0.133594,
2012-01-08, 00:36:04,VALID,1004.16,VALID,0,VALID,91.7754,VALID,0.0815089,VALID,24.5777,VALID,360,VALID,0,
2012-01-08, 00:37:04,VALID,1004.15,VALID,0,VALID,91.6305,VALID,0.0815089,VALID,24.5777,VALID,360,VALID,0,
2012-01-08, 00:38:04,VALID,1004.15,VALID,0,VALID,91.7525,VALID,0,VALID,24.5972,VALID,360,VALID,0,
2012-01-08, 00:39:04,VALID,1004.12,VALID,0,VALID,91.8899,VALID,0.0815089,VALID,24.5953,VALID,360,VALID,0,
2012-01-08, 00:40:04,VALID,1004.09,VALID,0,VALID,91.8288,VALID,0.0815089,VALID,24.6361,VALID,360,VALID,0.313281,
2012-01-08, 00:41:04,VALID,1004.06,VALID,0,VALID,91.7831,VALID,0.0815089,VALID,24.6361,VALID,360,VALID,0.507031,
2012-01-08, 00:42:04,VALID,1004.03,VALID,0,VALID,91.7525,VALID,0.0815089,VALID,24.6361,VALID,360,VALID,0.497656,
2012-01-08, 00:43:04,VALID,1003.98,VALID,0,VALID,91.6,VALID,0.0815089,VALID,24.6361,VALID,360,VALID,0.678125,
2012-01-08, 00:44:04,VALID,1003.97,VALID,0,VALID,91.7449,VALID,0,VALID,24.6166,VALID,360,VALID,0.646484,
2012-01-08, 00:45:04,VALID,1003.95,VALID,0,VALID,91.6229,VALID,0.0815089,VALID,24.5972,VALID,360,VALID,0.744141,
2012-01-08, 00:46:04,VALID,1003.97,VALID,0,VALID,91.6076,VALID,0.0815089,VALID,24.5758,VALID,360,VALID,0.623828,
2012-01-08, 00:47:04,VALID,1003.98,VALID,0,VALID,91.661,VALID,0,VALID,24.5582,VALID,360,VALID,0.619922,
2012-01-08, 00:48:04,VALID,1003.99,VALID,0,VALID,91.8136,VALID,0,VALID,24.5582,VALID,360,VALID,0.55,
2012-01-08, 00:49:04,VALID,1003.99,VALID,0,VALID,91.8136,VALID,0,VALID,24.5388,VALID,360,VALID,0.501172,
2012-01-08, 00:50:04,VALID,1003.97,VALID,0,VALID,91.8365,VALID,0,VALID,24.5193,VALID,360,VALID,0.542188,
2012-01-08, 00:51:04,VALID,1004.03,VALID,0,VALID,91.8822,VALID,0,VALID,24.5193,VALID,360,VALID,0.480859,
2012-01-08, 00:52:04,VALID,1004.02,VALID,0,VALID,91.9738,VALID,0,VALID,24.5193,VALID,360,VALID,0.575781,
2012-01-08, 00:53:04,VALID,1004.02,VALID,0,VALID,92.0119,VALID,0.0815089,VALID,24.4998,VALID,360,VALID,0.564062,
2012-01-08, 00:54:04,VALID,1004.03,VALID,0,VALID,91.9814,VALID,0.0815089,VALID,24.459,VALID,360,VALID,0.672266,
2012-01-08, 00:55:04,VALID,1004.01,VALID,0,VALID,91.9204,VALID,0,VALID,24.4183,VALID,351,VALID,0.518359,
2012-01-08, 00:56:04,VALID,1004.02,VALID,0,VALID,91.8517,VALID,0,VALID,24.4804,VALID,349,VALID,0.467578,
2012-01-08, 00:57:04,VALID,1004.01,VALID,0,VALID,91.6839,VALID,0,VALID,24.5406,VALID,349,VALID,0.639453,
2012-01-08, 00:58:04,VALID,1004.01,VALID,0,VALID,91.5771,VALID,0.0815089,VALID,24.5582,VALID,348,VALID,0.528516,
2012-01-08, 00:59:04,VALID,1003.98,VALID,0,VALID,91.5084,VALID,0.0815089,VALID,24.5972,VALID,349,VALID,0.526172,
2012-01-08, 01:00:04,VALID,1003.95,VALID,0,VALID,91.3635,VALID,0,VALID,24.5972,VALID,349,VALID,0.629687,
2012-01-08, 01:01:04,VALID,1003.95,VALID,0,VALID,91.1117,VALID,0,VALID,24.638,VALID,348,VALID,0.735156,
2012-01-08, 01:02:04,VALID,1003.92,VALID,0,VALID,90.9973,VALID,0,VALID,24.6361,VALID,349,VALID,0.552344,
2012-01-08, 01:03:04,VALID,1003.91,VALID,0,VALID,90.9439,VALID,0.0815089,VALID,24.675,VALID,352,VALID,0.397266,
2012-01-08, 01:04:04,VALID,1003.91,VALID,0,VALID,90.715,VALID,0,VALID,24.6945,VALID,352,VALID,0.365625,
2012-01-08, 01:05:04,VALID,1003.85,VALID,0,VALID,90.3412,VALID,0,VALID,24.7529,VALID,352,VALID,0.435156,
2012-01-08, 01:06:04,VALID,1003.84,VALID,0,VALID,90.0437,VALID,0.0815089,VALID,24.7724,VALID,352,VALID,0.367188,
2012-01-08, 01:07:04,VALID,1003.8,VALID,0,VALID,89.8987,VALID,0,VALID,24.8113,VALID,352,VALID,0.211328,
2012-01-08, 01:08:04,VALID,1003.81,VALID,0,VALID,89.7538,VALID,0,VALID,24.8503,VALID,352,VALID,0.372656,
2012-01-08, 01:09:04,VALID,1003.8,VALID,0,VALID,89.4868,VALID,0.0815089,VALID,24.8697,VALID,352,VALID,0.371484,
2012-01-08, 01:10:04,VALID,1003.73,VALID,0,VALID,89.0443,VALID,0,VALID,24.9087,VALID,352,VALID,0.674609,
2012-01-08, 01:11:04,VALID,1003.76,VALID,0,VALID,88.5026,VALID,0.0815089,VALID,25.006,VALID,353,VALID,0.473047,
2012-01-08, 01:12:04,VALID,1003.69,VALID,0,VALID,87.6787,VALID,0.0815089,VALID,25.1618,VALID,19,VALID,0.864062,
2012-01-08, 01:13:04,VALID,1003.66,VALID,0,VALID,87.0455,VALID,0.0815089,VALID,25.2786,VALID,9,VALID,0.758984,
2012-01-08, 01:14:04,VALID,1003.64,VALID,0,VALID,86.954,VALID,0.0815089,VALID,25.3565,VALID,9,VALID,0.628906,
2012-01-08, 01:15:04,VALID,1003.66,VALID,0,VALID,86.8243,VALID,0.0815089,VALID,25.337,VALID,9,VALID,0.226953,
2012-01-08, 01:16:04,VALID,1003.65,VALID,0,VALID,86.9387,VALID,0,VALID,25.3176,VALID,9,VALID,0.0746094,
2012-01-08, 01:17:04,VALID,1003.67,VALID,0,VALID,86.7327,VALID,0,VALID,25.2981,VALID,9,VALID,0.199219,
2012-01-08, 01:18:04,VALID,1003.66,VALID,0,VALID,86.4428,VALID,0,VALID,25.3176,VALID,9,VALID,0.255859,
2012-01-08, 01:19:04,VALID,1003.67,VALID,0,VALID,86.6488,VALID,0,VALID,25.3565,VALID,9,VALID,0.370313,
2012-01-08, 01:20:04,VALID,1003.66,VALID,0,VALID,86.8472,VALID,0,VALID,25.3176,VALID,9,VALID,0.342969,
2012-01-08, 01:21:04,VALID,1003.69,VALID,0,VALID,86.9158,VALID,0,VALID,25.2962,VALID,9,VALID,0.426562,
2012-01-08, 01:22:04,VALID,1003.66,VALID,0,VALID,86.8929,VALID,0,VALID,25.2786,VALID,9,VALID,0.361719,
2012-01-08, 01:23:04,VALID,1003.64,VALID,0,VALID,87.0074,VALID,0.0815089,VALID,25.2981,VALID,9,VALID,0.491016,
2012-01-08, 01:24:04,VALID,1003.63,VALID,0,VALID,87.1523,VALID,0,VALID,25.2572,VALID,9,VALID,0.399219,
2012-01-08, 01:25:04,VALID,1003.61,VALID,0,VALID,87.2591,VALID,0,VALID,25.2806,VALID,9,VALID,0.393359,
2012-01-08, 01:26:04,VALID,1003.62,VALID,0,VALID,87.2362,VALID,0.0815089,VALID,25.2592,VALID,9,VALID,0.445313,
2012-01-08, 01:27:04,VALID,1003.59,VALID,0,VALID,87.3354,VALID,0,VALID,25.2397,VALID,9,VALID,0.475781,
2012-01-08, 01:28:04,VALID,1003.55,VALID,0,VALID,87.488,VALID,0,VALID,25.2202,VALID,9,VALID,0.544922,
2012-01-08, 01:29:04,VALID,1003.54,VALID,0,VALID,87.8313,VALID,0,VALID,25.1618,VALID,9,VALID,0.689062,
2012-01-08, 01:30:04,VALID,1003.5,VALID,0,VALID,88.0373,VALID,0,VALID,25.1034,VALID,9,VALID,0.387109,
2012-01-08, 01:31:04,VALID,1003.53,VALID,0,VALID,88.2356,VALID,0,VALID,25.0644,VALID,8,VALID,0.395312,
2012-01-08, 01:32:04,VALID,1003.48,VALID,0,VALID,88.5637,VALID,0,VALID,25.006,VALID,7,VALID,0.641406,
2012-01-08, 01:33:04,VALID,1003.46,VALID,0,VALID,88.8841,VALID,0,VALID,25.0079,VALID,7,VALID,0.344531,
2012-01-08, 01:34:04,VALID,1003.45,VALID,0,VALID,89.1053,VALID,0,VALID,24.9476,VALID,7,VALID,0.446094,
2012-01-08, 01:35:04,VALID,1003.45,VALID,0,VALID,89.1053,VALID,0,VALID,24.93,VALID,3,VALID,0.35625,
2012-01-08, 01:36:04,VALID,1003.45,VALID,0,VALID,89.0595,VALID,0,VALID,24.9087,VALID,3,VALID,0.403125,
2012-01-08, 01:37:04,VALID,1003.43,VALID,0,VALID,89.0977,VALID,0,VALID,24.9087,VALID,3,VALID,0.252344,
2012-01-08, 01:38:04,VALID,1003.39,VALID,0,VALID,89.0595,VALID,0,VALID,24.8503,VALID,3,VALID,0.311719,
2012-01-08, 01:39:04,VALID,1003.37,VALID,0,VALID,89.113,VALID,0,VALID,24.8697,VALID,3,VALID,0.232422,
2012-01-08, 01:40:04,VALID,1003.36,VALID,0,VALID,88.968,VALID,0,VALID,24.8911,VALID,3,VALID,0.175781,
2012-01-08, 01:41:04,VALID,1003.35,VALID,0,VALID,88.8765,VALID,0,VALID,24.9087,VALID,3,VALID,0.0429688,
2012-01-08, 01:42:04,VALID,1003.36,VALID,0,VALID,88.8154,VALID,0,VALID,24.93,VALID,3,VALID,0.236328,
2012-01-08, 01:43:04,VALID,1003.38,VALID,0,VALID,88.7925,VALID,0,VALID,24.93,VALID,3,VALID,0.0777344,
2012-01-08, 01:44:04,VALID,1003.39,VALID,0,VALID,88.6781,VALID,0,VALID,24.9087,VALID,3,VALID,0,
2012-01-08, 01:45:04,VALID,1003.42,VALID,0,VALID,88.5484,VALID,0,VALID,24.93,VALID,3,VALID,0,
2012-01-08, 01:46:04,VALID,1003.39,VALID,0,VALID,88.701,VALID,0,VALID,24.9476,VALID,3,VALID,0,
2012-01-08, 01:47:04,VALID,1003.38,VALID,0,VALID,88.5255,VALID,0,VALID,24.9476,VALID,3,VALID,0.145313,
2012-01-08, 01:48:04,VALID,1003.31,VALID,0,VALID,88.5866,VALID,0,VALID,24.9671,VALID,3,VALID,0.155078,
2012-01-08, 01:49:04,VALID,1003.31,VALID,0,VALID,88.7162,VALID,0,VALID,25.0079,VALID,4,VALID,0.482031,
2012-01-08, 01:50:04,VALID,1003.29,VALID,0,VALID,88.5255,VALID,0,VALID,24.9866,VALID,5,VALID,0.544141,
2012-01-08, 01:51:04,VALID,1003.26,VALID,0,VALID,88.4798,VALID,0,VALID,25.0274,VALID,5,VALID,0.382422,
2012-01-08, 01:52:04,VALID,1003.23,VALID,0,VALID,88.5866,VALID,0,VALID,24.9671,VALID,5,VALID,0.413672,
2012-01-08, 01:53:04,VALID,1003.19,VALID,0,VALID,88.7468,VALID,0,VALID,24.9476,VALID,5,VALID,0.278125,
2012-01-08, 01:54:04,VALID,1003.21,VALID,0,VALID,88.8002,VALID,0,VALID,24.9087,VALID,5,VALID,0.235938,
2012-01-08, 01:55:04,VALID,1003.21,VALID,0,VALID,88.9604,VALID,0,VALID,24.8892,VALID,5,VALID,0.349609,
2012-01-08, 01:56:04,VALID,1003.14,VALID,0,VALID,89.0824,VALID,0,VALID,24.8503,VALID,5,VALID,0.295703,
2012-01-08, 01:57:04,VALID,1003.15,VALID,0,VALID,89.3723,VALID,0,VALID,24.8113,VALID,5,VALID,0.460156,
2012-01-08, 01:58:04,VALID,1003.13,VALID,0,VALID,89.6165,VALID,0,VALID,24.8327,VALID,5,VALID,0.359375,
2012-01-08, 01:59:04,VALID,1003.13,VALID,0,VALID,89.8835,VALID,0,VALID,24.7937,VALID,5,VALID,0.365234,
2012-01-08, 02:00:04,VALID,1003.11,VALID,0,VALID,90.1123,VALID,0,VALID,24.7335,VALID,5,VALID,0.512109,
2012-01-08, 02:01:04,VALID,1003.08,VALID,0,VALID,90.3412,VALID,0,VALID,24.7159,VALID,5,VALID,0.470703,
2012-01-08, 02:02:04,VALID,1003.08,VALID,0,VALID,90.5396,VALID,0,VALID,24.6556,VALID,5,VALID,0.539063,
2012-01-08, 02:03:04,VALID,1003.06,VALID,0,VALID,90.7532,VALID,0,VALID,24.6361,VALID,5,VALID,0.491406,
2012-01-08, 02:04:04,VALID,1003.09,VALID,0,VALID,91.0507,VALID,0,VALID,24.5972,VALID,5,VALID,0.405859,
2012-01-08, 02:05:04,VALID,1003.09,VALID,0,VALID,91.2185,VALID,0,VALID,24.599,VALID,5,VALID,0.447656,
2012-01-08, 02:06:04,VALID,1003.15,VALID,0,VALID,91.3024,VALID,0,VALID,24.5388,VALID,5,VALID,0.460547,
2012-01-08, 02:07:04,VALID,1003.14,VALID,0,VALID,91.4626,VALID,0,VALID,24.5388,VALID,5,VALID,0.324219,
2012-01-08, 02:08:04,VALID,1003.16,VALID,0,VALID,91.5847,VALID,0,VALID,24.5193,VALID,5,VALID,0.284766,
2012-01-08, 02:09:04,VALID,1003.14,VALID,0,VALID,91.6763,VALID,0,VALID,24.5193,VALID,5,VALID,0.212891,
2012-01-08, 02:10:04,VALID,1003.13,VALID,0,VALID,91.7297,VALID,0,VALID,24.4998,VALID,5,VALID,0.462891,
2012-01-08, 02:11:04,VALID,1003.13,VALID,0,VALID,91.9051,VALID,0,VALID,24.4998,VALID,5,VALID,0.29375,
2012-01-08, 02:12:04,VALID,1003.13,VALID,0,VALID,92.0196,VALID,0,VALID,24.5212,VALID,5,VALID,0.145703,
2012-01-08, 02:13:04,VALID,1003.13,VALID,0,VALID,92.1645,VALID,0,VALID,24.5212,VALID,5,VALID,0,
2012-01-08, 02:14:04,VALID,1003.12,VALID,0,VALID,92.1264,VALID,0,VALID,24.5406,VALID,5,VALID,0,
2012-01-08, 02:15:04,VALID,1003.1,VALID,0,VALID,92.073,VALID,0,VALID,24.4998,VALID,5,VALID,0,
2012-01-08, 02:16:04,VALID,1003.07,VALID,0,VALID,92.0424,VALID,0,VALID,24.5212,VALID,5,VALID,0,
2012-01-08, 02:17:04,VALID,1003.02,VALID,0,VALID,92.1035,VALID,0.0815089,VALID,24.4998,VALID,5,VALID,0,
2012-01-08, 02:18:04,VALID,1003.01,VALID,0,VALID,92.195,VALID,0,VALID,24.5193,VALID,5,VALID,0.545313,
2012-01-08, 02:19:04,VALID,1002.98,VALID,0,VALID,92.0958,VALID,0,VALID,24.4998,VALID,5,VALID,0.521094,
2012-01-08, 02:20:04,VALID,1002.99,VALID,0,VALID,92.1492,VALID,0,VALID,24.5212,VALID,5,VALID,0.246094,
2012-01-08, 02:21:04,VALID,1003,VALID,0,VALID,92.2637,VALID,0,VALID,24.4998,VALID,5,VALID,0.254687,
2012-01-08, 02:22:04,VALID,1003.04,VALID,0,VALID,92.3247,VALID,0,VALID,24.5193,VALID,5,VALID,0.266406,
2012-01-08, 02:23:04,VALID,1003.05,VALID,0,VALID,92.2789,VALID,0,VALID,24.5212,VALID,5,VALID,0.203906,
2012-01-08, 02:24:04,VALID,1003.07,VALID,0,VALID,92.2255,VALID,0,VALID,24.5193,VALID,5,VALID,0.469531,
2012-01-08, 02:25:04,VALID,1003.07,VALID,0,VALID,92.0348,VALID,0,VALID,24.4998,VALID,5,VALID,0.507813,
2012-01-08, 02:26:04,VALID,1003.06,VALID,0,VALID,92.0577,VALID,0,VALID,24.5388,VALID,5,VALID,0.715625,
2012-01-08, 02:27:04,VALID,1003.04,VALID,0,VALID,92.0043,VALID,0,VALID,24.5796,VALID,4,VALID,0.780078,
2012-01-08, 02:28:04,VALID,1003.04,VALID,0,VALID,92.0501,VALID,0,VALID,24.6185,VALID,4,VALID,0.683594,
2012-01-08, 02:29:04,VALID,1003.02,VALID,0,VALID,91.989,VALID,0,VALID,24.6166,VALID,4,VALID,0.589063,
2012-01-08, 02:30:04,VALID,1002.99,VALID,0,VALID,91.7907,VALID,0,VALID,24.6166,VALID,3,VALID,0.725781,
2012-01-08, 02:31:04,VALID,1002.95,VALID,0,VALID,91.6534,VALID,0,VALID,24.5972,VALID,359,VALID,0.688672,
2012-01-08, 02:32:04,VALID,1002.92,VALID,0,VALID,91.6152,VALID,0,VALID,24.638,VALID,357,VALID,0.875781,
2012-01-08, 02:33:04,VALID,1002.9,VALID,0,VALID,91.6305,VALID,0,VALID,24.638,VALID,357,VALID,0.630469,
2012-01-08, 02:34:04,VALID,1002.87,VALID,0,VALID,91.6229,VALID,0,VALID,24.6166,VALID,357,VALID,0.590234,
2012-01-08, 02:35:04,VALID,1002.88,VALID,0,VALID,91.6991,VALID,0,VALID,24.6166,VALID,358,VALID,0.613281,
2012-01-08, 02:36:04,VALID,1002.89,VALID,0,VALID,91.7678,VALID,0,VALID,24.599,VALID,359,VALID,0.575391,
2012-01-08, 02:37:04,VALID,1002.88,VALID,0,VALID,91.7144,VALID,0,VALID,24.6166,VALID,359,VALID,0.619141,
2012-01-08, 02:38:04,VALID,1002.88,VALID,0,VALID,91.4855,VALID,0,VALID,24.6361,VALID,359,VALID,0.387109,
2012-01-08, 02:39:04,VALID,1002.89,VALID,0,VALID,91.3787,VALID,0,VALID,24.6361,VALID,356,VALID,0.546484,
2012-01-08, 02:40:04,VALID,1002.88,VALID,0,VALID,91.0583,VALID,0.0815089,VALID,24.675,VALID,356,VALID,0.510156,
2012-01-08, 02:41:04,VALID,1002.88,VALID,0,VALID,90.8752,VALID,0,VALID,24.714,VALID,356,VALID,0.403516,
2012-01-08, 02:42:04,VALID,1002.87,VALID,0,VALID,90.6311,VALID,0,VALID,24.7529,VALID,355,VALID,0.343359,
2012-01-08, 02:43:04,VALID,1002.91,VALID,0,VALID,90.4022,VALID,0,VALID,24.7919,VALID,355,VALID,0.617578,
2012-01-08, 02:44:04,VALID,1002.92,VALID,0,VALID,90.0666,VALID,0,VALID,24.8308,VALID,355,VALID,0.506641,
2012-01-08, 02:45:04,VALID,1002.92,VALID,0,VALID,89.8682,VALID,0,VALID,24.8697,VALID,340,VALID,0.122656,
2012-01-08, 02:46:04,VALID,1002.93,VALID,0,VALID,89.5783,VALID,0,VALID,24.9087,VALID,339,VALID,0.428516,
2012-01-08, 02:47:04,VALID,1002.91,VALID,0,VALID,89.2732,VALID,0,VALID,24.9671,VALID,341,VALID,0.519531,
2012-01-08, 02:48:04,VALID,1002.87,VALID,0,VALID,89.1664,VALID,0,VALID,25.0255,VALID,341,VALID,0.632422,
2012-01-08, 02:49:04,VALID,1002.82,VALID,0,VALID,89.0977,VALID,0,VALID,25.0236,VALID,341,VALID,0.616016,
2012-01-08, 02:50:04,VALID,1002.82,VALID,0,VALID,89.1206,VALID,0,VALID,25.0255,VALID,341,VALID,0.671094,
2012-01-08, 02:51:04,VALID,1002.82,VALID,0,VALID,89.1664,VALID,0,VALID,25.006,VALID,344,VALID,0.741406,
2012-01-08, 02:52:04,VALID,1002.81,VALID,0,VALID,89.2579,VALID,0,VALID,24.9671,VALID,344,VALID,0.658203,
2012-01-08, 02:53:04,VALID,1002.84,VALID,0,VALID,89.3952,VALID,0,VALID,24.9263,VALID,349,VALID,0.647266,
2012-01-08, 02:54:04,VALID,1002.82,VALID,0,VALID,89.441,VALID,0,VALID,24.9476,VALID,351,VALID,0.624219,
2012-01-08, 02:55:04,VALID,1002.85,VALID,0,VALID,89.4334,VALID,0,VALID,24.9476,VALID,351,VALID,0.466797,
2012-01-08, 02:56:04,VALID,1002.83,VALID,0,VALID,89.5097,VALID,0,VALID,24.9476,VALID,349,VALID,0.559766,
2012-01-08, 02:57:04,VALID,1002.82,VALID,0,VALID,89.6241,VALID,0,VALID,24.9282,VALID,338,VALID,0.475,
2012-01-08, 02:58:04,VALID,1002.83,VALID,0,VALID,89.7461,VALID,0,VALID,24.9282,VALID,343,VALID,0.774219,
2012-01-08, 02:59:04,VALID,1002.82,VALID,0,VALID,89.7461,VALID,0,VALID,24.9263,VALID,345,VALID,0.553125,
2012-01-08, 03:00:04,VALID,1002.82,VALID,0,VALID,89.5325,VALID,0,VALID,24.9671,VALID,345,VALID,0.335938,
2012-01-08, 03:01:04,VALID,1002.83,VALID,0,VALID,89.441,VALID,0,VALID,24.9866,VALID,345,VALID,0.544141,
2012-01-08, 03:02:04,VALID,1002.8,VALID,0,VALID,89.3571,VALID,0,VALID,24.9866,VALID,345,VALID,0.246094,
2012-01-08, 03:03:04,VALID,1002.78,VALID,0,VALID,89.3113,VALID,0,VALID,25.0079,VALID,345,VALID,0.621875,
2012-01-08, 03:04:04,VALID,1002.77,VALID,0,VALID,89.2045,VALID,0,VALID,25.0255,VALID,345,VALID,0.832812,
2012-01-08, 03:05:04,VALID,1002.73,VALID,0,VALID,89.2579,VALID,0,VALID,25.006,VALID,348,VALID,0.812891,
2012-01-08, 03:06:04,VALID,1002.69,VALID,0,VALID,89.2808,VALID,0,VALID,25.006,VALID,350,VALID,0.891016,
2012-01-08, 03:07:04,VALID,1002.68,VALID,0,VALID,89.4181,VALID,0,VALID,24.9671,VALID,345,VALID,0.830469,
2012-01-08, 03:08:04,VALID,1002.71,VALID,0,VALID,89.502,VALID,0,VALID,24.9885,VALID,350,VALID,0.841016,
2012-01-08, 03:09:04,VALID,1002.71,VALID,0,VALID,89.5554,VALID,0,VALID,24.9866,VALID,342,VALID,0.535547,
2012-01-08, 03:10:04,VALID,1002.69,VALID,0,VALID,89.5707,VALID,0,VALID,24.9671,VALID,339,VALID,0.424609,
2012-01-08, 03:11:04,VALID,1002.68,VALID,0,VALID,89.6317,VALID,0,VALID,25.0079,VALID,339,VALID,0.272266,
2012-01-08, 03:12:04,VALID,1002.71,VALID,0,VALID,89.708,VALID,0,VALID,25.006,VALID,267,VALID,0.598828,
2012-01-08, 03:13:04,VALID,1002.68,VALID,0,VALID,89.7156,VALID,0,VALID,25.045,VALID,278,VALID,0.648047,
2012-01-08, 03:14:04,VALID,1002.66,VALID,0,VALID,89.6012,VALID,0.0815089,VALID,25.1034,VALID,271,VALID,0.600391,
2012-01-08, 03:15:04,VALID,1002.6,VALID,0,VALID,89.2655,VALID,0.0815089,VALID,25.1404,VALID,322,VALID,0.652344,
2012-01-08, 03:16:04,VALID,1002.57,VALID,0,VALID,89.0595,VALID,0,VALID,25.2183,VALID,349,VALID,0.587109,
2012-01-08, 03:17:04,VALID,1002.53,VALID,0,VALID,88.7849,VALID,0,VALID,25.337,VALID,359,VALID,0.933203,
2012-01-08, 03:18:04,VALID,1002.54,VALID,0,VALID,88.4645,VALID,0.0815089,VALID,25.376,VALID,352,VALID,0.673828,
2012-01-08, 03:19:04,VALID,1002.53,VALID,0,VALID,88.1899,VALID,0,VALID,25.3546,VALID,357,VALID,0.490234,
2012-01-08, 03:20:04,VALID,1002.57,VALID,0,VALID,88.1212,VALID,0,VALID,25.3565,VALID,345,VALID,1.04727,
2012-01-08, 03:21:04,VALID,1002.6,VALID,0,VALID,88.1822,VALID,0,VALID,25.376,VALID,336,VALID,0.629297,
2012-01-08, 03:22:04,VALID,1002.66,VALID,0,VALID,88.167,VALID,0.0815089,VALID,25.4149,VALID,342,VALID,0.548047,
2012-01-08, 03:23:04,VALID,1002.71,VALID,0,VALID,88.0144,VALID,0.0815089,VALID,25.4344,VALID,357,VALID,0.377734,
2012-01-08, 03:24:04,VALID,1002.69,VALID,0,VALID,87.7932,VALID,0.0815089,VALID,25.4539,VALID,355,VALID,0.283203,
2012-01-08, 03:25:04,VALID,1002.75,VALID,0,VALID,87.694,VALID,0.0815089,VALID,25.4928,VALID,267,VALID,0.569922,
2012-01-08, 03:26:04,VALID,1002.78,VALID,0,VALID,87.4041,VALID,0,VALID,25.5123,VALID,340,VALID,0.590234,
2012-01-08, 03:27:04,VALID,1002.8,VALID,0,VALID,87.3125,VALID,0.0815089,VALID,25.4909,VALID,356,VALID,0.196875,
2012-01-08, 03:28:04,VALID,1002.83,VALID,0,VALID,87.1752,VALID,0,VALID,25.5318,VALID,301,VALID,0.55,
2012-01-08, 03:29:04,VALID,1002.82,VALID,0,VALID,86.9616,VALID,0,VALID,25.5532,VALID,307,VALID,0.650391,
2012-01-08, 03:30:04,VALID,1002.83,VALID,0,VALID,87.0532,VALID,0.0815089,VALID,25.5318,VALID,308,VALID,0.503906,
2012-01-08, 03:31:04,VALID,1002.83,VALID,0,VALID,86.9082,VALID,0.0815089,VALID,25.5318,VALID,356,VALID,1.25664,
2012-01-08, 03:32:04,VALID,1002.86,VALID,0,VALID,87.015,VALID,0.0815089,VALID,25.4928,VALID,355,VALID,1.32852,
2012-01-08, 03:33:04,VALID,1002.89,VALID,0,VALID,87.16,VALID,0.0815089,VALID,25.4753,VALID,347,VALID,0.858594,
2012-01-08, 03:34:04,VALID,1002.88,VALID,0,VALID,87.3736,VALID,0,VALID,25.4344,VALID,351,VALID,0.799609,
2012-01-08, 03:35:04,VALID,1002.91,VALID,0,VALID,87.5719,VALID,0.0815089,VALID,25.3955,VALID,355,VALID,1.11953,
2012-01-08, 03:36:04,VALID,1002.94,VALID,0,VALID,87.7245,VALID,0.0815089,VALID,25.3955,VALID,341,VALID,0.942187,
2012-01-08, 03:37:04,VALID,1002.95,VALID,0,VALID,87.7932,VALID,0,VALID,25.3546,VALID,340,VALID,1.05508,
2012-01-08, 03:38:04,VALID,1002.95,VALID,0,VALID,87.8847,VALID,0,VALID,25.3546,VALID,344,VALID,0.558594,
2012-01-08, 03:39:04,VALID,1002.99,VALID,0,VALID,88.1136,VALID,0,VALID,25.376,VALID,341,VALID,0.340625,
2012-01-08, 03:40:04,VALID,1003,VALID,0,VALID,88.1746,VALID,0.0815089,VALID,25.376,VALID,312,VALID,0.150391,
2012-01-08, 03:41:04,VALID,1003.03,VALID,0,VALID,88.1517,VALID,0,VALID,25.3955,VALID,266,VALID,0.638672,
2012-01-08, 03:42:04,VALID,1003.04,VALID,0,VALID,88.1517,VALID,0,VALID,25.3935,VALID,273,VALID,0.245312,
2012-01-08, 03:43:04,VALID,1003.06,VALID,0,VALID,88.1136,VALID,0,VALID,25.4149,VALID,264,VALID,0.190625,